| time (UTC) | temp F | wind direction | speed knots | gust knots | rain 1hr in | rain 24hr in | rain mn in | humidity % | barometer mb |
| 20260903224945 | 59 | 240 | 5.2 | 10.4 | 0.02 | 0.14 | 0.14 | 94 | 1008.8 |
| 20260903224442 | 59 | 223 | 4.3 | 10.4 | 0.02 | 0.14 | 0.14 | 94 | 1008.9 |
| 20260903223433 | 59 | 195 | 5.2 | 9.6 | 0.01 | 0.13 | 0.13 | 94 | 1009.0 |
| 20260903222911 | 59 | 168 | 4.3 | 10.4 | 0.01 | 0.13 | 0.13 | 94 | 1009.0 |
| 20260903222407 | 59 | 176 | 6.1 | 10.4 | 0.01 | 0.13 | 0.13 | 94 | 1009.0 |
| 20260903221906 | 59 | 207 | 6.1 | 10.4 | 0.01 | 0.13 | 0.13 | 94 | 1009.0 |
| 20260903221406 | 59 | 206 | 5.2 | 12.2 | 0.01 | 0.13 | 0.13 | 94 | 1009.0 |
| 20260903220850 | 59 | 152 | 6.1 | 14.8 | 0.02 | 0.13 | 0.13 | 94 | 1008.9 |
| 20260903220344 | 59 | 213 | 6.1 | 14.8 | 0.02 | 0.13 | 0.13 | 94 | 1009.0 |
| 20260903215845 | 59 | 203 | 5.2 | 13.9 | 0.01 | 0.13 | 0.13 | 94 | 1009.2 |
| 20260903215343 | 59 | 213 | 6.1 | 10.4 | 0.01 | 0.13 | 0.13 | 94 | 1009.2 |
| 20260903214843 | 60 | 217 | 5.2 | 10.4 | 0.01 | 0.13 | 0.13 | 94 | 1009.1 |
| 20260903214333 | 60 | 171 | 4.3 | 10.4 | 0.01 | 0.13 | 0.13 | 94 | 1009.3 |
| 20260903213832 | 60 | 204 | 5.2 | 10.4 | 0.01 | 0.13 | 0.13 | 94 | 1009.4 |
| 20260903213306 | 60 | 223 | 7.0 | 13.0 | 0.01 | 0.13 | 0.13 | 94 | 1009.4 |
| 20260903212308 | 60 | 182 | 9.6 | 15.6 | 0.02 | 0.13 | 0.13 | 94 | 1009.4 |
| 20260903211807 | 60 | 200 | 5.2 | 16.5 | 0.02 | 0.13 | 0.13 | 94 | 1009.6 |
| 20260903211305 | 60 | 189 | 10.4 | 16.5 | 0.02 | 0.13 | 0.13 | 94 | 1009.6 |
| 20260903210806 | 60 | 197 | 5.2 | 12.2 | 0.01 | 0.12 | 0.12 | 94 | 1009.7 |
| 20260903205802 | 60 | 154 | 5.2 | 13.0 | 0.02 | 0.12 | 0.12 | 94 | 1009.7 |
| 20260903205306 | 60 | 155 | 7.8 | 15.6 | 0.02 | 0.12 | 0.12 | 94 | 1009.7 |
| 20260903204744 | 60 | 204 | 7.0 | 15.6 | 0.02 | 0.12 | 0.12 | 94 | 1009.6 |
| 20260903204243 | 60 | 212 | 6.1 | 15.6 | 0.02 | 0.12 | 0.12 | 94 | 1009.6 |
| 20260903203733 | 60 | 199 | 8.7 | 15.6 | 0.04 | 0.12 | 0.12 | 94 | 1009.6 |
| 20260903203231 | 61 | 196 | 7.8 | 15.6 | 0.06 | 0.12 | 0.12 | 94 | 1009.8 |
| 20260903202708 | 61 | 190 | 9.6 | 15.6 | 0.07 | 0.12 | 0.12 | 94 | 1009.8 |
| 20260903202205 | 61 | 172 | 7.8 | 16.5 | 0.07 | 0.11 | 0.11 | 94 | 1009.8 |
| 20260903201702 | 61 | 179 | 9.6 | 16.5 | 0.08 | 0.11 | 0.11 | 94 | 1009.9 |
| 20260903201205 | 61 | 196 | 7.8 | 13.9 | 0.09 | 0.11 | 0.11 | 94 | 1010.0 |
| 20260903200707 | 61 | 202 | 8.7 | 13.9 | 0.09 | 0.11 | 0.11 | 94 | 1009.9 |
| 20260903200203 | 61 | 175 | 4.3 | 9.6 | 0.08 | 0.10 | 0.10 | 94 | 1010.1 |
| 20260903195643 | 62 | 168 | 4.3 | 12.2 | 0.08 | 0.02 | 0.10 | 93 | 1010.3 |
| 20260903195145 | 62 | 204 | 4.3 | 12.2 | 0.07 | 0.02 | 0.09 | 92 | 1010.3 |
| 20260903194647 | 62 | 228 | 5.2 | 9.6 | 0.07 | 0.02 | 0.09 | 92 | 1010.3 |
| 20260903194145 | 62 | 166 | 3.5 | 9.6 | 0.06 | 0.02 | 0.09 | 92 | 1010.3 |
| 20260903193644 | 62 | 221 | 4.3 | 9.6 | 0.05 | 0.02 | 0.06 | 90 | 1010.5 |
| 20260903193144 | 62 | 219 | 6.1 | 9.6 | 0.03 | 0.02 | 0.06 | 90 | 1010.4 |
| 20260903192643 | 62 | 195 | 1.7 | 9.6 | 0.02 | 0.02 | 0.04 | 89 | 1010.3 |
| 20260903192145 | 63 | 209 | 4.3 | 7.8 | 0.01 | 0.02 | 0.03 | 88 | 1010.4 |
| 20260903191645 | 63 | 217 | 4.3 | 11.3 | 0.01 | 0.02 | 0.03 | 88 | 1010.3 |
| 20260903191144 | 63 | 206 | 3.5 | 12.2 | 0.00 | 0.02 | 0.02 | 88 | 1010.4 |
| 20260903190644 | 63 | 209 | 6.1 | 13.0 | 0.00 | 0.02 | 0.02 | 87 | 1010.4 |
| 20260903190145 | 63 | 213 | 6.1 | 17.4 | 0.00 | 0.02 | 0.02 | 87 | 1010.5 |
| 20260903185645 | 63 | 245 | 5.2 | 17.4 | 0.00 | 0.02 | 0.02 | 87 | 1010.5 |
| 20260903185144 | 63 | 202 | 8.7 | 15.6 | 0.00 | 0.02 | 0.02 | 87 | 1010.4 |
| 20260903184644 | 63 | 199 | 7.0 | 15.6 | 0.00 | 0.02 | 0.02 | 87 | 1010.3 |
| 20260903184145 | 63 | 219 | 7.8 | 13.9 | 0.00 | 0.02 | 0.02 | 87 | 1010.5 |
| 20260903183645 | 63 | 235 | 7.8 | 13.0 | 0.00 | 0.02 | 0.02 | 87 | 1010.5 |
| 20260903183144 | 63 | 196 | 6.1 | 16.5 | 0.00 | 0.02 | 0.02 | 88 | 1010.6 |
| 20260903182143 | 63 | 231 | 7.8 | 13.0 | 0.00 | 0.02 | 0.02 | 89 | 1010.7 |
| 20260903181644 | 63 | 199 | 7.8 | 13.0 | 0.00 | 0.02 | 0.02 | 89 | 1010.8 |
| 20260903181145 | 63 | 257 | 7.0 | 11.3 | 0.00 | 0.02 | 0.02 | 88 | 1010.8 |
| 20260903180644 | 63 | 209 | 7.8 | 11.3 | 0.01 | 0.02 | 0.02 | 88 | 1010.6 |
| 20260903175145 | 63 | 216 | 6.1 | 14.8 | 0.01 | 0.02 | 0.02 | 88 | 1010.6 |
| 20260903174644 | 63 | 238 | 7.0 | 12.2 | 0.01 | 0.02 | 0.02 | 88 | 1010.8 |
| 20260903174144 | 63 | 233 | 7.0 | 12.2 | 0.01 | 0.02 | 0.02 | 88 | 1010.8 |
| 20260903173644 | 64 | 210 | 3.5 | 13.0 | 0.01 | 0.02 | 0.02 | 88 | 1010.8 |
| 20260903173144 | 64 | 243 | 8.7 | 13.0 | 0.01 | 0.02 | 0.02 | 88 | 1010.7 |
| 20260903172646 | 64 | 221 | 6.1 | 15.6 | 0.01 | 0.02 | 0.02 | 87 | 1010.8 |
| 20260903172148 | 64 | 221 | 7.8 | 15.6 | 0.01 | 0.02 | 0.02 | 87 | 1010.7 |
| 20260903171646 | 64 | 231 | 5.2 | 15.6 | 0.01 | 0.02 | 0.02 | 87 | 1010.8 |
| 20260903171147 | 64 | 238 | 7.0 | 15.6 | 0.01 | 0.02 | 0.02 | 86 | 1010.8 |
| 20260903170645 | 64 | 237 | 6.1 | 12.2 | 0.00 | 0.02 | 0.02 | 86 | 1010.9 |
| 20260903170144 | 64 | 189 | 6.1 | 11.3 | 0.00 | 0.02 | 0.02 | 85 | 1010.9 |
| 20260903165147 | 65 | 213 | 5.2 | 12.2 | 0.00 | 0.02 | 0.02 | 82 | 1011.1 |
| 20260903164145 | 66 | 226 | 7.8 | 17.4 | 0.00 | 0.02 | 0.02 | 80 | 1011.4 |
| 20260903162644 | 67 | 203 | 8.7 | 19.1 | 0.00 | 0.02 | 0.02 | 77 | 1011.2 |
| 20260903161644 | 67 | 223 | 7.8 | 18.2 | 0.00 | 0.02 | 0.02 | 77 | 1011.5 |
| 20260903161145 | 67 | 214 | 9.6 | 19.1 | 0.00 | 0.02 | 0.02 | 76 | 1011.4 |
| 20260903160645 | 67 | 234 | 7.0 | 19.1 | 0.00 | 0.02 | 0.02 | 76 | 1011.5 |
| 20260903154645 | 68 | 231 | 11.3 | 24.3 | 0.00 | 0.02 | 0.02 | 75 | 1011.8 |
| 20260903154144 | 68 | 220 | 10.4 | 24.3 | 0.00 | 0.02 | 0.02 | 76 | 1011.8 |
| 20260903153644 | 68 | 199 | 7.0 | 15.6 | 0.00 | 0.02 | 0.02 | 74 | 1011.7 |
| 20260903153144 | 68 | 244 | 10.4 | 20.9 | 0.00 | 0.02 | 0.02 | 74 | 1011.8 |
| 20260903152644 | 68 | 228 | 10.4 | 20.9 | 0.00 | 0.02 | 0.02 | 74 | 1011.9 |
| 20260903152144 | 69 | 202 | 9.6 | 18.2 | 0.00 | 0.02 | 0.02 | 73 | 1011.8 |
| 20260903151644 | 69 | 188 | 8.7 | 20.9 | 0.00 | 0.02 | 0.02 | 72 | 1011.9 |
| 20260903151144 | 69 | 209 | 12.2 | 20.9 | 0.00 | 0.02 | 0.02 | 71 | 1012.0 |
| 20260903150132 | 69 | 217 | 8.7 | 18.2 | 0.00 | 0.02 | 0.02 | 70 | 1011.9 |
| 20260903145632 | 70 | 257 | 9.6 | 17.4 | 0.00 | 0.02 | 0.02 | 70 | 1011.9 |
| 20260903145105 | 70 | 272 | 9.6 | 17.4 | 0.00 | 0.02 | 0.02 | 69 | 1012.1 |
| 20260903144606 | 70 | 271 | 7.8 | 13.9 | 0.00 | 0.02 | 0.02 | 69 | 1011.9 |
| 20260903143042 | 70 | 265 | 6.1 | 16.5 | 0.00 | 0.03 | 0.02 | 69 | 1012.0 |
| 20260903142545 | 69 | 231 | 8.7 | 16.5 | 0.00 | 0.03 | 0.02 | 69 | 1012.0 |
| 20260903142043 | 69 | 219 | 7.0 | 20.0 | 0.00 | 0.03 | 0.02 | 68 | 1011.9 |
| 20260903141542 | 69 | 244 | 11.3 | 20.0 | 0.00 | 0.03 | 0.02 | 68 | 1011.8 |
| 20260903141047 | 69 | 223 | 9.6 | 19.1 | 0.00 | 0.03 | 0.02 | 70 | 1011.7 |
| 20260903140541 | 69 | 212 | 8.7 | 19.1 | 0.00 | 0.03 | 0.02 | 69 | 1011.6 |
| 20260903140039 | 69 | 200 | 10.4 | 20.9 | 0.00 | 0.03 | 0.02 | 69 | 1011.7 |
| 20260903135537 | 69 | 233 | 13.0 | 20.9 | 0.00 | 0.03 | 0.02 | 69 | 1011.9 |
| 20260903135008 | 68 | 202 | 7.8 | 20.0 | 0.00 | 0.03 | 0.02 | 69 | 1011.8 |
| 20260903134509 | 68 | 296 | 9.6 | 20.0 | 0.00 | 0.03 | 0.02 | 69 | 1011.7 |
| 20260903133948 | 69 | 217 | 13.9 | 20.0 | 0.00 | 0.03 | 0.02 | 69 | 1011.6 |
| 20260903133442 | 69 | 224 | 13.9 | 17.4 | 0.00 | 0.03 | 0.02 | 70 | 1011.7 |
| 20260903132944 | 68 | 257 | 7.0 | 17.4 | 0.00 | 0.03 | 0.02 | 70 | 1011.9 |
| 20260903132448 | 67 | 257 | 11.3 | 16.5 | 0.00 | 0.03 | 0.02 | 70 | 1012.1 |
| 20260903131943 | 68 | 226 | 5.2 | 22.6 | 0.00 | 0.03 | 0.02 | 68 | 1012.1 |
| 20260903131442 | 68 | 262 | 9.6 | 22.6 | 0.00 | 0.04 | 0.02 | 68 | 1011.9 |
| 20260903130933 | 68 | 234 | 8.7 | 18.2 | 0.00 | 0.04 | 0.02 | 68 | 1012.0 |
| 20260903130432 | 68 | 206 | 8.7 | 19.1 | 0.00 | 0.05 | 0.02 | 68 | 1011.9 |
| 20260903125934 | 68 | 238 | 12.2 | 15.6 | 0.00 | 0.06 | 0.02 | 67 | 1011.9 |
| 20260903125416 | 68 | 247 | 7.8 | 21.7 | 0.00 | 0.06 | 0.02 | 67 | 1011.8 |
| 20260903124916 | 68 | 226 | 9.6 | 21.7 | 0.00 | 0.06 | 0.02 | 67 | 1011.7 |
| 20260903124408 | 69 | 295 | 9.6 | 19.1 | 0.00 | 0.06 | 0.02 | 67 | 1011.6 |
| 20260903123906 | 69 | 275 | 8.7 | 19.1 | 0.00 | 0.06 | 0.02 | 75 | 1011.6 |
| 20260903123405 | 68 | 252 | 9.6 | 17.4 | 0.00 | 0.07 | 0.02 | 75 | 1011.6 |
| 20260903122405 | 68 | 228 | 9.6 | 21.7 | 0.00 | 0.07 | 0.02 | 72 | 1011.9 |
| 20260903121904 | 68 | 209 | 10.4 | 16.5 | 0.00 | 0.07 | 0.02 | 72 | 1011.9 |
| 20260903121405 | 68 | 245 | 8.7 | 18.2 | 0.00 | 0.07 | 0.02 | 72 | 1011.9 |
| 20260903120904 | 68 | 216 | 12.2 | 21.7 | 0.00 | 0.07 | 0.02 | 72 | 1012.0 |
| 20260903120403 | 68 | 237 | 10.4 | 21.7 | 0.00 | 0.07 | 0.02 | 72 | 1011.9 |
| 20260903115842 | 68 | 179 | 8.7 | 17.4 | 0.00 | 0.07 | 0.02 | 72 | 1011.8 |
| 20260903114833 | 69 | 231 | 6.1 | 15.6 | 0.00 | 0.07 | 0.02 | 72 | 1011.9 |
| 20260903113807 | 70 | 228 | 12.2 | 19.1 | 0.00 | 0.07 | 0.02 | 75 | 1011.8 |
| 20260903113250 | 70 | 214 | 9.6 | 18.2 | 0.00 | 0.07 | 0.02 | 75 | 1011.7 |
| 20260903112743 | 69 | 259 | 12.2 | 16.5 | 0.00 | 0.07 | 0.02 | 75 | 1011.7 |
| 20260903112244 | 69 | 251 | 8.7 | 14.8 | 0.00 | 0.07 | 0.02 | 77 | 1011.6 |
| 20260903111731 | 67 | 231 | 8.7 | 14.8 | 0.00 | 0.07 | 0.02 | 80 | 1011.4 |
| 20260903111234 | 67 | 303 | 4.3 | 10.4 | 0.00 | 0.07 | 0.02 | 82 | 1011.7 |
| 20260903110734 | 67 | 261 | 4.3 | 9.6 | 0.00 | 0.07 | 0.02 | 82 | 1011.6 |
| 20260903110231 | 66 | 233 | 4.3 | 9.6 | 0.00 | 0.07 | 0.02 | 82 | 1011.6 |
| 20260903105733 | 65 | 258 | 5.2 | 13.0 | 0.00 | 0.07 | 0.02 | 81 | 1011.8 |
| 20260903103706 | 65 | 286 | 5.2 | 12.2 | 0.00 | 0.07 | 0.02 | 81 | 1011.6 |
| 20260903103207 | 66 | 259 | 7.8 | 12.2 | 0.00 | 0.07 | 0.02 | 80 | 1011.7 |
| 20260903102203 | 66 | 216 | 5.2 | 13.0 | 0.00 | 0.07 | 0.02 | 80 | 1011.6 |
| 20260903101703 | 66 | 223 | 7.8 | 14.8 | 0.00 | 0.07 | 0.02 | 80 | 1011.6 |
| 20260903101155 | 67 | 235 | 7.8 | 14.8 | 0.00 | 0.07 | 0.02 | 80 | 1011.7 |
| 20260903100146 | 66 | 281 | 6.1 | 14.8 | 0.00 | 0.07 | 0.02 | 81 | 1011.4 |
| 20260903095642 | 66 | 254 | 7.8 | 15.6 | 0.00 | 0.07 | 0.02 | 80 | 1011.3 |
| 20260903095143 | 66 | 234 | 7.8 | 15.6 | 0.00 | 0.07 | 0.02 | 82 | 1011.3 |
| 20260903094644 | 66 | 221 | 6.1 | 13.9 | 0.00 | 0.07 | 0.02 | 82 | 1011.4 |
| 20260903094142 | 66 | 219 | 6.1 | 13.9 | 0.00 | 0.07 | 0.02 | 83 | 1011.5 |
| 20260903093648 | 66 | 200 | 8.7 | 13.9 | 0.00 | 0.07 | 0.02 | 85 | 1011.5 |
| 20260903093143 | 66 | 223 | 8.7 | 13.9 | 0.00 | 0.07 | 0.02 | 85 | 1011.4 |
| 20260903091643 | 65 | 195 | 7.8 | 13.9 | 0.00 | 0.07 | 0.02 | 88 | 1011.5 |
| 20260903091145 | 65 | 223 | 2.6 | 13.0 | 0.01 | 0.07 | 0.02 | 88 | 1011.2 |
| 20260903090644 | 64 | 269 | 6.1 | 13.0 | 0.02 | 0.07 | 0.02 | 89 | 1011.4 |
| 20260903090141 | 64 | 240 | 5.2 | 11.3 | 0.02 | 0.07 | 0.02 | 90 | 1011.3 |
| 20260903085643 | 64 | 243 | 7.0 | 10.4 | 0.02 | 0.06 | 0.02 | 91 | 1011.2 |
| 20260903085144 | 63 | 259 | 7.0 | 11.3 | 0.02 | 0.06 | 0.02 | 93 | 1011.3 |
| 20260903084643 | 63 | 240 | 6.1 | 11.3 | 0.02 | 0.06 | 0.02 | 93 | 1010.9 |
| 20260903084147 | 63 | 254 | 5.2 | 11.3 | 0.02 | 0.06 | 0.02 | 93 | 1010.9 |
| 20260903083642 | 63 | 233 | 6.1 | 11.3 | 0.02 | 0.06 | 0.02 | 94 | 1010.9 |
| 20260903083143 | 62 | 227 | 4.3 | 11.3 | 0.02 | 0.06 | 0.02 | 92 | 1011.0 |
| 20260903082142 | 63 | 227 | 5.2 | 11.3 | 0.02 | 0.06 | 0.02 | 92 | 1011.1 |
| 20260903081643 | 63 | 209 | 3.5 | 10.4 | 0.02 | 0.06 | 0.02 | 91 | 1011.0 |
| 20260903081144 | 63 | 206 | 7.0 | 10.4 | 0.01 | 0.06 | 0.00 | 91 | 1011.1 |
| 20260903080641 | 63 | 307 | 3.5 | 7.8 | 0.00 | 0.06 | 0.00 | 91 | 1011.1 |
| 20260903080145 | 63 | 272 | 5.2 | 10.4 | 0.00 | 0.06 | 0.00 | 91 | 1010.9 |
| 20260903075143 | 63 | 233 | 3.5 | 11.3 | 0.00 | 0.06 | 0.00 | 92 | 1010.8 |
| 20260903074644 | 63 | 227 | 5.2 | 11.3 | 0.00 | 0.06 | 0.00 | 92 | 1011.0 |
| 20260903074144 | 63 | 244 | 5.2 | 11.3 | 0.00 | 0.06 | 0.00 | 92 | 1010.9 |
| 20260903073644 | 63 | 243 | 2.6 | 7.0 | 0.00 | 0.06 | 0.00 | 92 | 1010.8 |
| 20260903072645 | 63 | 223 | 4.3 | 11.3 | 0.00 | 0.06 | 0.00 | 92 | 1010.5 |
| 20260903072147 | 63 | 252 | 3.5 | 11.3 | 0.00 | 0.06 | 0.00 | 92 | 1010.4 |
| 20260903071143 | 63 | 189 | 3.5 | 13.0 | 0.00 | 0.06 | 0.00 | 92 | 1010.4 |
| 20260903070644 | 63 | 227 | 7.0 | 13.9 | 0.00 | 0.06 | 0.00 | 92 | 1010.4 |
| 20260903070144 | 63 | 203 | 5.2 | 13.9 | 0.00 | 0.06 | 0.00 | 92 | 1010.4 |
| 20260903065643 | 63 | 228 | 8.7 | 13.9 | 0.00 | 0.06 | 0.00 | 92 | 1010.4 |
| 20260903065143 | 63 | 186 | 8.7 | 13.9 | 0.00 | 0.06 | 0.00 | 92 | 1010.3 |
| 20260903064644 | 63 | 247 | 5.2 | 14.8 | 0.00 | 0.06 | 0.00 | 92 | 1010.4 |
| 20260903064142 | 63 | 219 | 8.7 | 14.8 | 0.00 | 0.06 | 0.00 | 92 | 1010.3 |
| 20260903063647 | 63 | 190 | 4.3 | 13.0 | 0.00 | 0.06 | 0.00 | 91 | 1010.0 |
| 20260903063145 | 63 | 210 | 9.6 | 13.9 | 0.00 | 0.06 | 0.00 | 91 | 1010.1 |
| 20260903062644 | 63 | 283 | 8.7 | 13.9 | 0.00 | 0.06 | 0.00 | 91 | 1009.9 |
| 20260903062144 | 63 | 257 | 6.1 | 12.2 | 0.00 | 0.06 | 0.00 | 91 | 1009.9 |
| 20260903061643 | 63 | 254 | 7.0 | 14.8 | 0.00 | 0.06 | 0.00 | 90 | 1009.8 |
| 20260903061144 | 63 | 200 | 9.6 | 16.5 | 0.00 | 0.06 | 0.00 | 90 | 1009.8 |
| 20260903060643 | 63 | 224 | 8.7 | 16.5 | 0.00 | 0.06 | 0.00 | 90 | 1009.7 |
| 20260903060143 | 63 | 199 | 5.2 | 13.0 | 0.00 | 0.06 | 0.00 | 91 | 1009.7 |
| 20260903055645 | 63 | 228 | 7.8 | 14.8 | 0.00 | 0.06 | 0.00 | 90 | 1009.6 |
| 20260903054144 | 62 | 241 | 5.2 | 12.2 | 0.00 | 0.06 | 0.00 | 92 | 1009.6 |
| 20260903053645 | 62 | 216 | 7.0 | 12.2 | 0.00 | 0.06 | 0.00 | 92 | 1009.6 |
| 20260903052645 | 62 | 245 | 5.2 | 9.6 | 0.00 | 0.06 | 0.00 | 92 | 1009.5 |
| 20260903052143 | 62 | 245 | 3.5 | 10.4 | 0.00 | 0.06 | 0.00 | 92 | 1009.5 |
| 20260903051643 | 62 | 204 | 6.1 | 10.4 | 0.00 | 0.06 | 0.00 | 92 | 1009.6 |
| 20260903051147 | 62 | 223 | 3.5 | 10.4 | 0.00 | 0.06 | 0.00 | 92 | 1009.7 |
| 20260903050142 | 62 | 203 | 3.5 | 9.6 | 0.00 | 0.06 | 0.00 | 92 | 1009.7 |
| 20260903045643 | 62 | 204 | 3.5 | 9.6 | 0.00 | 0.06 | 0.00 | 92 | 1009.6 |
| 20260903045145 | 62 | 221 | 3.5 | 13.0 | 0.00 | 0.06 | 0.00 | 92 | 1009.6 |
| 20260903044143 | 62 | 228 | 7.0 | 15.6 | 0.00 | 0.06 | 0.00 | 92 | 1009.5 |
| 20260903043643 | 62 | 224 | 7.0 | 18.2 | 0.00 | 0.06 | 0.00 | 92 | 1009.4 |
| 20260903042633 | 62 | 207 | 7.8 | 17.4 | 0.00 | 0.06 | 0.00 | 92 | 1009.2 |
| 20260903042132 | 62 | 162 | 9.6 | 17.4 | 0.00 | 0.06 | 0.00 | 92 | 1009.1 |
| 20260903041606 | 63 | 210 | 5.2 | 12.2 | 0.00 | 0.06 | 0.00 | 92 | 1009.2 |
| 20260903041110 | 63 | 237 | 7.8 | 15.6 | 0.00 | 0.06 | 0.00 | 92 | 1009.1 |
| 20260903040611 | 63 | 234 | 7.8 | 15.6 | 0.00 | 0.06 | 0.00 | 92 | 1009.1 |
| 20260903040108 | 63 | 210 | 7.8 | 13.9 | 0.00 | 0.06 | 0.00 | 92 | 1009.1 |
| 20260903035604 | 63 | 241 | 7.0 | 15.6 | 0.00 | 0.06 | 0.00 | 93 | 1009.2 |
| 20260903034533 | 63 | 223 | 8.7 | 13.0 | 0.00 | 0.06 | 0.00 | 93 | 1009.1 |
| 20260903034032 | 63 | 240 | 6.1 | 13.0 | 0.00 | 0.06 | 0.00 | 93 | 1009.2 |
| 20260903033533 | 63 | 231 | 7.0 | 10.4 | 0.00 | 0.06 | 0.00 | 94 | 1009.1 |
| 20260903033030 | 63 | 213 | 6.1 | 11.3 | 0.00 | 0.06 | 0.00 | 94 | 1009.1 |
| 20260903032529 | 63 | 193 | 4.3 | 14.8 | 0.00 | 0.06 | 0.00 | 94 | 1009.1 |
| 20260903032023 | 63 | 220 | 6.1 | 14.8 | 0.00 | 0.06 | 0.00 | 94 | 1009.2 |
| 20260903031512 | 63 | 238 | 5.2 | 13.0 | 0.00 | 0.06 | 0.00 | 94 | 1009.0 |
| 20260903030507 | 64 | 188 | 4.3 | 10.4 | 0.00 | 0.06 | 0.00 | 93 | 1009.0 |
| 20260903030006 | 64 | 226 | 5.2 | 13.0 | 0.00 | 0.06 | 0.00 | 93 | 1008.9 |
| 20260903025505 | 64 | 196 | 7.8 | 13.0 | 0.00 | 0.06 | 0.00 | 93 | 1009.0 |
| 20260903024958 | 64 | 200 | 8.7 | 18.2 | 0.00 | 0.06 | 0.00 | 93 | 1009.0 |
| 20260903024445 | 64 | 219 | 7.8 | 18.2 | 0.00 | 0.06 | 0.00 | 93 | 1008.9 |
| 20260903023944 | 64 | 214 | 7.8 | 18.2 | 0.00 | 0.06 | 0.00 | 93 | 1009.0 |
| 20260903022942 | 64 | 223 | 7.8 | 15.6 | 0.00 | 0.06 | 0.00 | 93 | 1009.2 |
| 20260903022441 | 64 | 196 | 7.8 | 13.9 | 0.00 | 0.06 | 0.00 | 93 | 1009.1 |
| 20260903021939 | 64 | 169 | 7.0 | 14.8 | 0.00 | 0.06 | 0.00 | 93 | 1009.3 |
| 20260903020941 | 64 | 209 | 5.2 | 13.0 | 0.00 | 0.06 | 0.00 | 93 | 1009.2 |
| 20260903020440 | 64 | 217 | 7.8 | 13.0 | 0.00 | 0.06 | 0.00 | 93 | 1009.2 |
| 20260903015940 | 64 | 216 | 7.0 | 14.8 | 0.00 | 0.06 | 0.00 | 93 | 1009.3 |
| 20260903015439 | 64 | 199 | 8.7 | 14.8 | 0.00 | 0.06 | 0.00 | 93 | 1009.3 |
| 20260903014936 | 64 | 248 | 7.8 | 15.6 | 0.00 | 0.06 | 0.00 | 93 | 1009.3 |
| 20260903014433 | 64 | 238 | 8.7 | 15.6 | 0.00 | 0.06 | 0.00 | 93 | 1009.3 |
| 20260903013934 | 64 | 188 | 7.0 | 14.8 | 0.00 | 0.06 | 0.00 | 93 | 1009.3 |
| 20260903013412 | 64 | 226 | 5.2 | 12.2 | 0.00 | 0.06 | 0.00 | 93 | 1009.3 |
| 20260903012908 | 64 | 240 | 6.1 | 13.9 | 0.00 | 0.06 | 0.00 | 93 | 1009.2 |
| 20260903012405 | 64 | 168 | 8.7 | 15.6 | 0.00 | 0.06 | 0.00 | 93 | 1009.2 |
| 20260903011906 | 64 | 207 | 5.2 | 16.5 | 0.00 | 0.06 | 0.00 | 94 | 1009.2 |
| 20260903011405 | 64 | 207 | 6.1 | 16.5 | 0.00 | 0.06 | 0.00 | 94 | 1009.2 |
| 20260903010906 | 64 | 182 | 8.7 | 13.0 | 0.00 | 0.06 | 0.00 | 94 | 1009.3 |
| 20260903010404 | 64 | 247 | 9.6 | 15.6 | 0.00 | 0.06 | 0.00 | 94 | 1009.2 |
| 20260903005904 | 64 | 178 | 9.6 | 15.6 | 0.00 | 0.06 | 0.00 | 94 | 1009.3 |
| 20260903005342 | 64 | 176 | 9.6 | 16.5 | 0.00 | 0.06 | 0.00 | 94 | 1009.2 |
| 20260903004840 | 64 | 234 | 6.1 | 16.5 | 0.00 | 0.06 | 0.00 | 94 | 1009.1 |
| 20260903004333 | 64 | 243 | 7.8 | 15.6 | 0.00 | 0.06 | 0.00 | 94 | 1009.2 |
| 20260903003834 | 64 | 189 | 7.8 | 15.6 | 0.00 | 0.06 | 0.00 | 94 | 1009.2 |
| 20260903003332 | 64 | 190 | 8.7 | 14.8 | 0.00 | 0.06 | 0.00 | 94 | 1009.4 |
| 20260903002831 | 64 | 203 | 7.8 | 14.8 | 0.00 | 0.06 | 0.00 | 94 | 1009.5 |
| 20260903002331 | 64 | 204 | 8.7 | 14.8 | 0.00 | 0.06 | 0.00 | 94 | 1009.4 |
| 20260903001834 | 64 | 217 | 9.6 | 14.8 | 0.00 | 0.06 | 0.00 | 94 | 1009.4 |
| 20260903000752 | 64 | 197 | 8.7 | 13.9 | 0.00 | 0.06 | 0.00 | 94 | 1009.5 |
| 20260903000243 | 64 | 192 | 7.8 | 19.1 | 0.00 | 0.06 | 0.00 | 94 | 1009.7 |
| 20260902235744 | 64 | 219 | 7.0 | 19.1 | 0.00 | 0.06 | 0.00 | 94 | 1009.7 |
| 20260902235244 | 64 | 210 | 7.8 | 17.4 | 0.00 | 0.06 | 0.00 | 94 | 1009.7 |
| 20260902234741 | 64 | 200 | 5.2 | 15.6 | 0.00 | 0.06 | 0.00 | 94 | 1009.5 |
| 20260902234240 | 64 | 223 | 7.8 | 18.2 | 0.00 | 0.07 | 0.00 | 93 | 1009.6 |
| 20260902233742 | 65 | 210 | 10.4 | 18.2 | 0.00 | 0.07 | 0.00 | 93 | 1009.7 |
| 20260902233247 | 65 | 230 | 6.1 | 21.7 | 0.00 | 0.07 | 0.00 | 93 | 1009.6 |
| 20260902232746 | 65 | 255 | 13.9 | 21.7 | 0.00 | 0.07 | 0.00 | 93 | 1009.7 |
| 20260902232241 | 64 | 243 | 11.3 | 20.9 | 0.00 | 0.07 | 0.00 | 93 | 1009.8 |
| 20260902231740 | 65 | 224 | 10.4 | 19.1 | 0.00 | 0.07 | 0.00 | 93 | 1009.8 |
| 20260902231242 | 64 | 226 | 7.0 | 17.4 | 0.00 | 0.07 | 0.00 | 93 | 1009.9 |
| 20260902230741 | 64 | 223 | 7.0 | 17.4 | 0.00 | 0.07 | 0.00 | 93 | 1009.8 |
| 20260902225740 | 64 | 219 | 10.4 | 21.7 | 0.00 | 0.07 | 0.07 | 93 | 1009.7 |